Flag for U.S.A. Weather past 2 weeks in Montgomery, Alabama, U.S.A.

Now
71 °F

Clear.


Feels Like: 63 °F
Forecast: 64 / 85 °F
Wind: 3 mph from Northwest

Location: Maxwell Air Force Base / Montgomery

Current Time: Sep 18, 2014 at 1:03:49 AM

Latest Report: Sep 17, 2014 at 11:58 PM


Visibility: 10 mi

Pressure: 29.94 "Hg

Humidity: 99%

Dew point: 70 °F

Location of MontgomeryLocation

Historic Weather in Montgomery — Graph

°F

Montgomery temperature yesterday

Maximum temperature yesterday: 91 °F (at 2:58 PM)
Minimum temperature yesterday: 71 °F (at 11:58 PM)
Average temperature yesterday: 79 °F

Past Weeks' High & Low Weather Summary

 TemperatureHumidityPressure
High94 °F (Sep 12, 3:58 PM)100% (Sep 3, 2:58 AM)30.17 "Hg (Sep 3, 2:58 AM)
Low70 °F (Sep 14, 6:58 AM)44% (Sep 12, 3:58 PM)29.88 "Hg (Sep 17, 3:58 PM)
Average80 °F82%30.03 "Hg
* Reported Sep 2 11:58 PM — Sep 17 11:58 PM, Montgomery, Weather by CustomWeather, © 2014

Note: Actual official high and low records may vary slightly from our data, if they occured in-between our weather recording intervals... More about our weather records

Advertising

Montgomery weather history for previous 24 hours

 ConditionsComfort  
Time TempWeatherWind HumidityBarometerVisibility
11:58 PM
Sep 17
71 °FClear.3 mph99%29.94 "Hg10 mi
10:58 PM72 °FClear.No wind93%29.94 "Hg10 mi
9:58 PM72 °FClear.No wind92%29.93 "Hg10 mi
8:58 PM78 °FClear.No wind72%29.91 "Hg10 mi
7:58 PM78 °FClear.5 mph76%29.90 "Hg10 mi
6:58 PM83 °FSunny.6 mph61%29.89 "Hg10 mi
5:58 PM87 °FSunny.8 mph52%29.88 "Hg10 mi
4:58 PM90 °FPassing clouds.10 mph47%29.89 "Hg10 mi
3:58 PM91 °FPassing clouds.8 mph44%29.88 "Hg10 mi
2:58 PM91 °FScattered clouds.6 mph45%29.89 "Hg10 mi
1:58 PM90 °FScattered clouds.7 mph46%29.91 "Hg10 mi
12:58 PM88 °FScattered clouds.3 mph56%29.93 "Hg10 mi
11:58 AM86 °FSunny.5 mph60%29.96 "Hg10 mi
10:58 AM84 °FSunny.5 mph66%29.96 "Hg10 mi
9:58 AM80 °FSunny.3 mph75%29.97 "Hg10 mi
8:58 AM77 °FSunny.6 mph85%29.97 "Hg10 mi
7:58 AM74 °FSunny.5 mph100%29.97 "Hg10 mi
6:58 AM71 °FClear.6 mph100%29.96 "Hg10 mi
5:58 AM71 °FFog.No wind100%29.95 "Hg4 mi
5:03 AM72 °FFog.1 mph100%29.94 "Hg2 mi
3:58 AM72 °FClear.2 mph100%29.93 "Hg10 mi
2:58 AM73 °FPassing clouds.2 mph100%29.95 "Hg10 mi
1:58 AM73 °FClear.6 mph100%29.96 "Hg10 mi
Weather by CustomWeather, © 2014

See weather overviewHow to use our weather pages